Hourly Weather Roundup
Issued by NWS Central Illinois

Home | Current Version | Previous Version | Text Only | Print | Product List | Glossary On
Versions: 1 2 3 4 5 6 7 8 9 10 11 12 13 14 15 16 17 18 19 20 21 22 23 24 25 26 27 28 29 30 31 32 33 34 35 36 37 38 39 40 41 42 43 44 45 46 47 48 49 50
000
NZUS43 KILX 040410
HWRILX

AREA WEATHER ROUNDUP
NATIONAL WEATHER SERVICE, LINCOLN IL
1000 PM CST SAT DEC 03 2016


CITY           SKY/WX    TMP DP  RH WIND       PRES   REMARKS
BLOOMINGTON    CLOUDY    30  28  92 SE6       30.28F WCI  24
CHAMPAIGN      CLOUDY    32  27  81 E6        30.28S WCI  26
DANVILLE       PTCLDY    31  27  84 CALM      30.27R
DECATUR        CLOUDY    34  28  79 E9        30.28F WCI  27
EFFINGHAM      CLOUDY    37  32  84 NE3       30.30R
FLORA          CLOUDY    40  32  74 E6        30.28S
GALESBURG      CLOUDY    33  29  83 E7        30.24F WCI  27
JACKSONVILLE   CLOUDY    37  32  84 E7        30.25S WCI  31
LACON          MOCLDY    32  28  84 SE5       30.28R WCI  27
LAWRENCEVILLE  CLOUDY    37  30  75 NE8       30.28F WCI  31
LITCHFIELD     CLOUDY    37  33  84 E7        30.26S WCI  31
$$


CITY           SKY/WX    TMP DP  RH WIND       PRES   REMARKS
LINCOLN        CLOUDY    34  31  88 E8        30.28S WCI  27
MACOMB         CLOUDY    35  31  86 SE8       30.26S WCI  29
MATTOON        CLOUDY    34  28  79 E6        30.28S WCI  29
MT CARMEL AP   CLOUDY    37  31  77 NE6       30.28F WCI  33
OLNEY-NOBLE AP CLOUDY    36  32  87 E6        30.29S WCI  31
PARIS          CLOUDY    32  29  90 CALM      30.29F
PEORIA         CLOUDY    34  28  79 E8        30.27F WCI  27
PONTIAC        CLOUDY    32  31  95 SE5       30.30S WCI  27
RANTOUL        CLOUDY    33  30  88 CALM      30.29R
SPRINGFIELD    CLOUDY    37  31  78 SE8       30.27S WCI  31
TAYLORVILLE    CLOUDY    35  31  85 E9        30.27S WCI  28
$$

...REGIONAL REPORTS...


CITY           SKY/WX    TMP DP  RH WIND       PRES   REMARKS
CHICAGO O`HARE CLOUDY    31  26  82 S5        30.28F WCI  26
KANKAKEE       CLOUDY    30  27  89 CALM      30.30F
MOLINE         CLOUDY    35  26  69 SE9       30.25F WCI  28
MOUNT STERLING CLOUDY    36  32  85 SE9       30.23S WCI  29
MOUNT VERNON   NOT AVBL
PITTSFIELD     CLOUDY    38  35  87 E5        30.25S WCI  35
QUINCY         CLOUDY    38  34  85 SE10      30.21F WCI  31
ROCKFORD       CLOUDY    34  28  79 S7        30.28F WCI  28
$$


CITY           SKY/WX    TMP DP  RH WIND       PRES   REMARKS
BURLINGTON     CLOUDY    35  30  82 SE10      30.22F WCI  27
CEDAR RAPIDS   CLOUDY    35  29  78 SE8       30.19F WCI  29
DES MOINES     LGT RAIN  37  34  89 E10       30.14F WCI  30
KIRKSVILLE     CLOUDY    39  32  76 SE12      30.17S WCI  32
OTTUMWA        CLOUDY    37  30  75 E9        30.17S WCI  30
ST LOUIS       CLOUDY    42  32  67 E9        30.24S
$$


CITY           SKY/WX    TMP DP  RH WIND       PRES   REMARKS
TERRE HAUTE    PTCLDY    33  28  81 E3        30.29F
EVANSVILLE     CLOUDY    40  31  70 E5        30.26F
INDIANAPOLIS   CLOUDY    33  27  78 E3        30.28F
LAFAYETTE      CLOUDY    33  28  81 CALM      30.28F
MADISON        CLOUDY    30  25  81 SE5       30.23F WCI  25
MILWAUKEE      CLOUDY    32  22  66 CALM      30.26F
$$






USA.gov is the U.S. government's official web portal to all federal, state and local government web resources and services.